| time (UTC) | temp C | wind direction | speed KPH | gust KPH | rain 1hr cm | rain 24hr cm | rain mn cm | humidity % | barometer mb |
| 20260504110703 | 17 | 140 | 14.5 | 33.8 | 0.41 | 1.04 | 1.04 | 79 | 1015.4 |
| 20260504081704 | 22 | 120 | 11.3 | 37.0 | 0.00 | 0.61 | 0.61 | 65 | 1013.2 |
| 20260504080703 | 22 | 120 | 14.5 | 40.2 | 0.00 | 0.61 | 0.61 | 66 | 1013.1 |
| 20260504050704 | 23 | 110 | 16.1 | 35.4 | 0.00 | 0.61 | 0.61 | 66 | 1013.9 |
| 20260504045704 | 22 | 100 | 14.5 | 35.4 | 0.00 | 0.61 | 0.61 | 68 | 1014.0 |
| 20260504044704 | 23 | 100 | 12.9 | 35.4 | 0.00 | 0.61 | 0.61 | 67 | 1014.2 |
| 20260504043704 | 23 | 110 | 11.3 | 35.4 | 0.00 | 0.61 | 0.61 | 66 | 1014.3 |
| 20260504042704 | 23 | 100 | 12.9 | 35.4 | 0.00 | 0.61 | 0.61 | 65 | 1014.2 |
| 20260504041703 | 23 | 100 | 11.3 | 35.4 | 0.00 | 0.61 | 0.61 | 69 | 1014.3 |
| 20260504040703 | 23 | 100 | 14.5 | 25.7 | 0.00 | 0.61 | 0.61 | 67 | 1014.4 |
| 20260504035703 | 22 | 120 | 9.7 | 25.7 | 0.00 | 0.61 | 0.61 | 70 | 1014.8 |
| 20260504034704 | 22 | 100 | 12.9 | 25.7 | 0.00 | 0.61 | 0.61 | 69 | 1014.5 |
| 20260504033703 | 22 | 130 | 12.9 | 25.7 | 0.00 | 0.61 | 0.61 | 70 | 1014.7 |
| 20260504032704 | 22 | 120 | 12.9 | 25.7 | 0.00 | 0.61 | 0.61 | 69 | 1014.9 |
| 20260504031704 | 22 | 120 | 11.3 | 25.7 | 0.00 | 0.61 | 0.61 | 69 | 1015.0 |
| 20260504030703 | 22 | 130 | 8.0 | 22.5 | 0.00 | 0.61 | 0.61 | 70 | 1015.0 |
| 20260504025703 | 22 | 140 | 4.8 | 22.5 | 0.00 | 0.61 | 0.61 | 74 | 1015.1 |
| 20260504024703 | 21 | 140 | 9.7 | 22.5 | 0.00 | 0.61 | 0.61 | 73 | 1015.5 |
| 20260504023704 | 21 | 140 | 11.3 | 22.5 | 0.00 | 0.61 | 0.61 | 74 | 1015.4 |
| 20260504022703 | 20 | 130 | 9.7 | 22.5 | 0.00 | 0.61 | 0.61 | 76 | 1015.2 |
| 20260504021703 | 20 | 140 | 8.0 | 22.5 | 0.00 | 0.61 | 0.61 | 77 | 1015.5 |
| 20260504020704 | 20 | 130 | 11.3 | 24.1 | 0.00 | 0.61 | 0.61 | 75 | 1015.7 |
| 20260504015703 | 20 | 140 | 8.0 | 24.1 | 0.05 | 0.61 | 0.61 | 74 | 1015.8 |
| 20260504014703 | 20 | 150 | 6.4 | 24.1 | 0.05 | 0.61 | 0.61 | 78 | 1015.9 |
| 20260504013704 | 20 | 150 | 8.0 | 24.1 | 0.05 | 0.61 | 0.61 | 78 | 1015.9 |
| 20260504012704 | 20 | 150 | 8.0 | 24.1 | 0.05 | 0.61 | 0.61 | 78 | 1015.6 |
| 20260504011703 | 20 | 140 | 6.4 | 24.1 | 0.05 | 0.61 | 0.61 | 79 | 1015.6 |
| 20260504010704 | 20 | 150 | 6.4 | 33.8 | 0.05 | 0.61 | 0.61 | 81 | 1015.3 |
| 20260504005704 | 20 | 130 | 4.8 | 33.8 | 0.00 | 0.56 | 0.56 | 86 | 1015.2 |
| 20260504004704 | 20 | 130 | 8.0 | 33.8 | 0.05 | 0.56 | 0.56 | 85 | 1015.4 |
| 20260504003704 | 20 | 120 | 8.0 | 33.8 | 0.05 | 0.56 | 0.56 | 88 | 1015.4 |
| 20260504002703 | 19 | 120 | 11.3 | 33.8 | 0.05 | 0.56 | 0.56 | 89 | 1015.6 |
| 20260504001703 | 19 | 120 | 9.7 | 33.8 | 0.10 | 0.56 | 0.56 | 89 | 1015.6 |
| 20260504000703 | 19 | 120 | 11.3 | 29.0 | 0.10 | 0.56 | 0.56 | 88 | 1015.5 |
| 20260503235704 | 19 | 120 | 9.7 | 29.0 | 0.10 | 0.56 | 0.56 | 90 | 1015.6 |
| 20260503234703 | 19 | 110 | 9.7 | 29.0 | 0.10 | 0.51 | 0.51 | 89 | 1015.4 |
| 20260503233704 | 19 | 110 | 12.9 | 29.0 | 0.15 | 0.51 | 0.51 | 87 | 1015.5 |
| 20260503232704 | 19 | 100 | 11.3 | 29.0 | 0.30 | 0.51 | 0.51 | 90 | 1015.4 |
| 20260503231703 | 19 | 100 | 9.7 | 29.0 | 0.30 | 0.51 | 0.51 | 90 | 1015.3 |
| 20260503230703 | 19 | 100 | 11.3 | 29.0 | 0.36 | 0.46 | 0.46 | 90 | 1015.3 |
| 20260503225704 | 19 | 110 | 11.3 | 29.0 | 0.41 | 0.46 | 0.46 | 89 | 1015.0 |
| 20260503224703 | 19 | 90 | 11.3 | 29.0 | 0.36 | 0.41 | 0.41 | 89 | 1014.6 |
| 20260503223703 | 19 | 100 | 9.7 | 29.0 | 0.36 | 0.36 | 0.36 | 89 | 1014.4 |
| 20260503222703 | 19 | 100 | 11.3 | 29.0 | 0.20 | 0.20 | 0.20 | 89 | 1014.2 |
| 20260503221704 | 19 | 100 | 9.7 | 29.0 | 0.20 | 0.20 | 0.20 | 88 | 1014.1 |
| 20260503220711 | 20 | 100 | 11.3 | 33.8 | 0.10 | 0.10 | 0.10 | 86 | 1013.9 |
| 20260503215703 | 20 | 100 | 12.9 | 33.8 | 0.05 | 0.05 | 0.05 | 85 | 1013.6 |
| 20260503214703 | 20 | 100 | 9.7 | 33.8 | 0.05 | 0.05 | 0.05 | 81 | 1013.5 |
| 20260503213704 | 21 | 100 | 8.0 | 33.8 | 0.00 | 0.00 | 0.00 | 78 | 1013.5 |
| 20260503212704 | 21 | 100 | 9.7 | 33.8 | 0.00 | 0.00 | 0.00 | 73 | 1013.2 |
| 20260503211703 | 21 | 90 | 9.7 | 33.8 | 0.00 | 0.00 | 0.00 | 74 | 1012.9 |
| 20260503210704 | 22 | 110 | 8.0 | 27.4 | 0.00 | 0.00 | 0.00 | 72 | 1012.6 |
| 20260503205704 | 22 | 110 | 8.0 | 27.4 | 0.00 | 0.00 | 0.00 | 73 | 1012.5 |
| 20260503204703 | 22 | 120 | 9.7 | 27.4 | 0.00 | 0.00 | 0.00 | 73 | 1012.5 |
| 20260503203703 | 22 | 120 | 9.7 | 27.4 | 0.00 | 0.00 | 0.00 | 74 | 1012.3 |
| 20260503202703 | 22 | 120 | 8.0 | 27.4 | 0.00 | 0.00 | 0.00 | 76 | 1012.2 |
| 20260503201703 | 22 | 130 | 8.0 | 27.4 | 0.00 | 0.00 | 0.00 | 76 | 1012.2 |
| 20260503200703 | 22 | 130 | 8.0 | 30.6 | 0.00 | 0.00 | 0.00 | 77 | 1011.9 |
| 20260503195703 | 22 | 120 | 8.0 | 30.6 | 0.00 | 0.00 | 0.00 | 76 | 1011.8 |
| 20260503194703 | 22 | 100 | 11.3 | 30.6 | 0.00 | 0.00 | 0.00 | 76 | 1011.7 |
| 20260503193703 | 22 | 100 | 9.7 | 30.6 | 0.00 | 0.00 | 0.00 | 76 | 1011.6 |
| 20260503192703 | 21 | 100 | 8.0 | 30.6 | 0.00 | 0.00 | 0.00 | 77 | 1011.6 |
| 20260503191703 | 21 | 110 | 11.3 | 30.6 | 0.00 | 0.00 | 0.00 | 77 | 1011.5 |
| 20260503190703 | 21 | 120 | 9.7 | 41.8 | 0.00 | 0.00 | 0.00 | 77 | 1011.5 |
| 20260503185703 | 21 | 110 | 11.3 | 41.8 | 0.00 | 0.00 | 0.00 | 79 | 1011.5 |
| 20260503184704 | 21 | 110 | 9.7 | 41.8 | 0.00 | 0.00 | 0.00 | 78 | 1011.4 |
| 20260503183703 | 21 | 100 | 8.0 | 41.8 | 0.00 | 0.00 | 0.00 | 78 | 1011.3 |
| 20260503182704 | 21 | 90 | 9.7 | 41.8 | 0.00 | 0.00 | 0.00 | 78 | 1011.5 |
| 20260503181703 | 22 | 100 | 9.7 | 41.8 | 0.00 | 0.00 | 0.00 | 75 | 1011.5 |
| 20260503180703 | 22 | 110 | 11.3 | 40.2 | 0.00 | 0.00 | 0.00 | 73 | 1011.2 |
| 20260503175704 | 22 | 110 | 12.9 | 40.2 | 0.00 | 0.00 | 0.00 | 74 | 1011.3 |
| 20260503174703 | 22 | 110 | 11.3 | 40.2 | 0.00 | 0.00 | 0.00 | 76 | 1011.3 |
| 20260503173703 | 22 | 110 | 12.9 | 40.2 | 0.00 | 0.00 | 0.00 | 76 | 1011.0 |
| 20260503172707 | 22 | 100 | 14.5 | 40.2 | 0.00 | 0.00 | 0.00 | 76 | 1011.0 |
| 20260503171704 | 22 | 110 | 12.9 | 40.2 | 0.00 | 0.00 | 0.00 | 76 | 1011.1 |
| 20260503170704 | 22 | 110 | 16.1 | 41.8 | 0.00 | 0.00 | 0.00 | 77 | 1011.0 |
| 20260503150703 | 25 | 100 | 14.5 | 22.5 | 0.00 | 0.00 | 0.00 | 79 | 1009.8 |
| 20260503130704 | 26 | 310 | 11.3 | 24.1 | 0.00 | 0.00 | 0.00 | 78 | 1008.6 |